Weather History for Omaha Offutt, NE

Change the Weather History Date:

Friday, September 6, 2013

  Actual Average Record
Temperature  
Mean Temperature 76 °F -  
Max Temperature 90 °F 80 °F 95 °F (1998)
Min Temperature 63 °F 59 °F 44 °F (2008)
Cooling Degree Days 11    
Growing Degree Days 26 (Base 50)    
Moisture  
Dew Point 67 °F    
Average Humidity 72    
Maximum Humidity 94    
Minimum Humidity 53    
Precipitation  
Precipitation 0.00 in - - ()
Sea Level Pressure  
Sea Level Pressure 30.02 in    
Wind  
Wind Speed 7 mph (SE)    
Max Wind Speed 16 mph    
Max Gust Speed 20 mph    
Visibility 10 miles    
Events Rain    
Averages and records for this station are not official NWS values.
T = Trace of Precipitation, MM = Missing Value Source: NWS Daily Summary

Daily Weather History Graph

Daily Weather History Graph

Search for Another Location

Airport:

Trip Planner

Search our weather history database for the weather conditions in past years. The results will help you decide how hot, cold, wet, or windy it might be!

Date:

Astronomy

Sep. 06, 2013 Rise Set
Actual Time 6:55 AM CDT 7:47 PM CDT
Civil Twilight 6:27 AM CDT 8:15 PM CDT
Nautical Twilight 5:54 AM CDT 8:48 PM CDT
Astronomical Twilight 5:19 AM CDT 9:23 PM CDT
Moon 8:10 AM CDT (9/6) 8:10 PM CDT (9/6)
Length of Visible Light 13h 48m
Length of Day
12h 52m
New Moon, 2% of the Moon is Illuminated
Sep 6
New Moon
Sep 12
First Quarter
Sep 19
Full
Sep 26
Last Quarter
Oct 4
New

Hourly Weather History & Observations

Time (CDT) Temp. Heat Index Dew Point Humidity Pressure Visibility Wind Dir Wind Speed Gust Speed Precip Events Conditions
12:58 AM 67.5 °F - 65.3 °F 93% 30.11 in 10.0 mi East 4.6 mph - N/A   Scattered Clouds
1:58 AM 67.1 °F - 64.0 °F 90% 30.11 in 10.0 mi East 5.8 mph - N/A   Mostly Cloudy
2:58 AM 66.2 °F - 62.8 °F 89% 30.09 in 10.0 mi ESE 3.5 mph - N/A   Partly Cloudy
3:58 AM 66.4 °F - 63.1 °F 89% 30.08 in 10.0 mi East 4.6 mph - N/A   Partly Cloudy
4:58 AM 65.3 °F - 62.1 °F 89% 30.09 in 10.0 mi East 6.9 mph - N/A   Clear
5:58 AM 64.4 °F - 62.2 °F 93% 30.09 in 10.0 mi East 6.9 mph - N/A   Partly Cloudy
6:58 AM 63.9 °F - 62.2 °F 94% 30.09 in 10.0 mi ESE 5.8 mph - N/A   Scattered Clouds
7:58 AM 67.6 °F - 63.9 °F 88% 30.09 in 10.0 mi ESE 4.6 mph - N/A   Clear
8:58 AM 72.5 °F - 64.6 °F 76% 30.09 in 10.0 mi SE 6.9 mph - N/A   Clear
9:58 AM 75.6 °F - 65.5 °F 71% 30.07 in 10.0 mi SE 9.2 mph - N/A   Clear
10:58 AM 82.2 °F 84.9 °F 67.5 °F 61% 30.06 in 10.0 mi SSE 10.4 mph - N/A   Clear
11:58 AM 84.4 °F 88.5 °F 69.4 °F 61% 30.04 in 10.0 mi SSE 10.4 mph - N/A   Partly Cloudy
12:17 PM 84.2 °F 88.4 °F 69.8 °F 62% 30.05 in 10.0 mi SE 12.7 mph - N/A Rain Light Rain Showers
12:25 PM 86.0 °F 90.4 °F 69.8 °F 58% 30.04 in 10.0 mi SSE 12.7 mph - N/A   Mostly Cloudy
12:58 PM 87.1 °F 91.3 °F 69.1 °F 55% 30.02 in 10.0 mi SE 16.1 mph - N/A   Clear
1:58 PM 87.3 °F 91.6 °F 69.4 °F 55% 30.00 in 10.0 mi SSE 12.7 mph - N/A   Partly Cloudy
2:58 PM 89.4 °F 94.8 °F 70.3 °F 53% 29.97 in 10.0 mi SE 16.1 mph - N/A   Clear
3:58 PM 89.4 °F 95.8 °F 71.2 °F 55% 29.96 in 10.0 mi SSE 10.4 mph - N/A   Clear
4:58 PM 87.1 °F 92.8 °F 71.4 °F 59% 29.94 in 10.0 mi SE 10.4 mph - N/A   Partly Cloudy
5:58 PM 86.9 °F 92.5 °F 71.2 °F 59% 29.93 in 10.0 mi SSE 9.2 mph 19.6 mph N/A   Clear
6:58 PM 84.6 °F 88.8 °F 70.0 °F 61% 29.92 in 10.0 mi SE 8.1 mph - N/A   Clear
7:58 PM 81.9 °F 85.4 °F 69.6 °F 66% 29.91 in 10.0 mi SSE 4.6 mph - N/A   Clear
8:58 PM 80.6 °F 83.5 °F 68.9 °F 67% 29.92 in 10.0 mi SE 3.5 mph - N/A   Clear
9:58 PM 79.0 °F - 69.1 °F 72% 29.92 in 10.0 mi SE 3.5 mph - N/A   Clear
10:58 PM 78.4 °F - 68.5 °F 72% 29.91 in 10.0 mi ESE 2.3 mph - N/A   Clear
11:58 PM 76.3 °F - 68.4 °F 76% 29.91 in 10.0 mi SE 2.3 mph - N/A   Mostly Cloudy